Girona - FEDAC St.Narcís (Gironés)





Hora UTC 08:25
Temperatura 22.6 ºC
Humitat 78.0 %
Pressió 1013.3 hPa
Pluja 0.0 mm
Velocitat vent 6.4 km/h
Direcció vent

Dades diàries 2024-06-18



Hora UTC (hivern +1h; estiu +2h)
Temperatura (ºC) Humitat (%) Pressió (hPa) Velocitat vent (km/h) Precipitació (mm)
Hora UTC Aire Humitat Pressió Vel. Dir. Vel. Max Dir. Intent. màx 5 min.
00:05 19.6 90.0 1014.3 3.2 3.2 0.0
00:15 19.6 90.0 1014.4 3.2 8.0 0.0
00:25 19.6 90.0 1014.2 1.6 8.0 0.0
00:35 19.5 90.0 1014.0 3.2 8.0 0.0
00:45 19.6 91.0 1013.9 1.6 8.0 0.0
00:55 19.7 91.0 1013.7 3.2 9.7 0.0
01:05 19.8 91.0 1013.6 1.6 9.7 0.0
01:15 19.8 92.0 1013.5 3.2 9.7 0.0
01:25 19.8 91.0 1013.5 1.6 9.7 0.0
01:35 19.6 91.0 1013.4 3.2 9.7 0.0
01:45 19.5 91.0 1013.4 1.6 9.7 0.0
01:55 19.4 91.0 1013.3 3.2 9.7 0.0
02:05 19.3 91.0 1013.1 1.6 9.7 0.0
02:15 19.3 91.0 1012.9 0.0 9.7 0.0
02:25 19.2 92.0 1012.8 1.6 9.7 0.0
02:35 19.2 92.0 1012.7 1.6 9.7 0.0
02:45 19.1 92.0 1012.7 1.6 9.7 0.0
02:55 19.0 92.0 1012.7 1.6 9.7 0.0
03:05 18.8 92.0 1012.8 1.6 9.7 0.0
03:15 18.7 92.0 1012.9 0.0 9.7 0.0
03:25 18.7 92.0 1012.8 0.0 9.7 0.0
03:35 18.7 93.0 1012.8 1.6 9.7 0.0
03:45 18.4 92.0 1012.9 3.2 9.7 0.0
03:55 18.3 92.0 1012.9 1.6 9.7 0.0
04:05 17.9 92.0 1012.8 3.2 9.7 0.0
04:15 17.7 92.0 1012.8 3.2 9.7 0.0
04:25 17.7 92.0 1012.8 3.2 9.7 0.0
04:35 17.6 92.0 1012.6 1.6 9.7 0.0
04:45 17.5 93.0 1012.6 1.6 9.7 0.0
04:55 17.5 93.0 1012.6 1.6 9.7 0.0
05:05 17.4 93.0 1012.7 1.6 9.7 0.0
05:15 17.6 93.0 1012.8 0.0 9.7 0.0
05:25 17.8 93.0 1012.9 1.6 9.7 0.0
05:35 17.9 93.0 1012.8 1.6 9.7 0.0
05:45 18.3 93.0 1012.9 3.2 9.7 0.0
05:55 18.3 93.0 1013.1 4.8 12.9 0.0
06:05 18.4 93.0 1013.3 3.2 12.9 0.0
06:15 18.6 93.0 1013.5 3.2 12.9 0.0
06:25 18.7 92.0 1013.7 3.2 12.9 0.0
06:35 18.9 92.0 1013.8 4.8 12.9 0.0
06:45 19.1 91.0 1013.8 4.8 12.9 0.0
06:55 19.2 91.0 1013.8 4.8 12.9 0.0
07:05 19.4 90.0 1013.8 6.4 12.9 0.0
07:15 19.8 88.0 1013.9 6.4 12.9 0.0
07:25 20.2 87.0 1013.7 4.8 12.9 0.0
07:35 20.6 85.0 1013.6 6.4 12.9 0.0
07:45 20.8 84.0 1013.5 6.4 16.1 0.0
07:55 21.2 82.0 1013.3 6.4 16.1 0.0
08:05 21.7 81.0 1013.2 4.8 16.1 0.0
08:15 22.2 79.0 1013.3 4.8 16.1 0.0
08:25 22.6 78.0 1013.3 6.4 17.7 0.0
Màxima 22.6 93.0 1014.4 6.4 17.7 0.0
Mínima 17.4 78.0 1012.6
Total 0.0